Regional Weather Roundup
Issued by NWS

Home | Current Version | Previous Version | Graphics & Text | Print | Product List | Glossary On
Versions: 1 2 3 4 5 6 7 8 9 10 11 12 13 14 15 16 17 18 19 20 21 22 23 24 25 26 27 28 29 30 31 32 33 34 35 36 37 38 39 40 41 42 43 44 45 46 47 48 49 50
000
ASUS45 KBOU 010907
RWRCO

WEATHER ROUNDUP FOR COLORADO
NATIONAL WEATHER SERVICE DENVER/BOULDER CO
300 AM MDT WED APR 01 2015

NOTE: "FAIR" INDICATES FEW OR NO CLOUDS BELOW 12000 FEET WITH NO
SIGNIFICANT WEATHER AND/OR OBSTRUCTIONS TO VISIBILITY.

COZ001>005-013-030-031-011000-
...NORTHWEST COLORADO...

CITY           SKY/WX    TMP DP  RH WIND       PRES   REMARKS
CRAIG          PTCLDY    40  28  62 NW7       29.82F
HAYDEN         PTCLDY    46  19  34 NE5       29.84F
MEEKER         CLEAR     47  20  34 CALM      29.84F
MOUNT WERNER   NOT AVBL
STEAMBOAT SPGS PTCLDY    49  21  33 E6        29.86S
WALDEN         PTCLDY    36  21  55 S7        29.90F
$$

COZ006>008-011-011000-
...WEST CENTRAL VALLEYS...

CITY           SKY/WX    TMP DP  RH WIND       PRES   REMARKS
GRAND JUNCTION PTCLDY    52  19  27 E8        29.81F
MONTROSE       CLOUDY    53  24  32 S10       29.92S
EAGLE          PTCLDY    39  23  52 CALM      29.92S
RIFLE          CLEAR     43  23  45 E3        29.85S
DELTA          NOT AVBL
NUCLA          CLOUDY    52  21  30 SE6       29.96S
$$

COZ017>023-064>068-011000-
...SOUTHWEST COLORADO...

CITY           SKY/WX    TMP DP  RH WIND       PRES   REMARKS
DURANGO        CLOUDY    46  27  47 N8        30.00S
CORTEZ         CLEAR     56  25  30 SW13      29.96F
PAGOSA SPRINGS CLOUDY    43  23  44 CALM      30.05F
TELLURIDE      NOT AVBL
WOLF CREEK PAS MOCLDY    32  19  59 SW31G43   30.20F WCI  17
$$

COZ009-010-012-014-032>034-037-058>063-011000-
...CENTRAL COLORADO...

CITY           SKY/WX    TMP DP  RH WIND       PRES   REMARKS
ASPEN          MOCLDY    42  23  46 S8        29.94F
BUENA VISTA    PTCLDY    32  24  71 NW7       29.97F WCI  26
COPPER MTN     PTCLDY    37  14  38 SW18      30.12F
BERTHOUD PASS  FAIR      30  23  74 W35G54    30.07F WCI  14
COTTONWOOD PAS PTCLDY    45  12  26 CALM      30.04F
GUNNISON       PTCLDY    30  21  69 CALM      30.05S
KREMMLING      PTCLDY    34  25  69 SE3       29.94S
LEADVILLE      NOT AVBL
SALIDA         PTCLDY    48  19  32 W5        30.03F
SUNLIGHT       MOCLDY    37  21  52 SW3       30.08F
WILKERSON PASS CLEAR     34  16  47 SW9G18    30.10F WCI  26
$$

COZ069>075-011000-
...SAN LUIS VALLEY/SANGRE DE CRISTO MOUNTAINS...

CITY           SKY/WX    TMP DP  RH WIND       PRES   REMARKS
ALAMOSA        MOCLDY    37  20  50 SW10      30.00F
LA VETA PASS   CLEAR     36  18  48 S10G17    30.07F
SAGUACHE       PTCLDY    36  19  51 N7        30.02F
$$

COZ035-036-038>040-011000-
...NORTHERN COLORADO FRONT RANGE...

CITY           SKY/WX    TMP DP  RH WIND       PRES   REMARKS
DENVER INTL AP PTCLDY    56  23  27 S18       29.76F
DMNS CITY PARK   N/A     59  21  23 SW12G17   29.76F
AURORA         PTCLDY    47  25  41 S15       29.79F
FRONT RANGE AP CLEAR     54  27  35 S16       29.77F
ERIE MUNI ARPT CLEAR     47  24  40 SW6       29.74F
BOULDER MUN AP CLEAR     55  21  26 SW6       29.74F
CENTENNIAL     PTCLDY    54  22  28 S13       29.80F
BROOMFIELD     CLEAR     52  21  30 SW7       29.78F
FORT COLLINS   PTCLDY    45  21  39 SE8       29.74F
LONGMONT       PTCLDY    49  25  39 SW8       29.75F
$$

COZ041-046-047-076>085-087-088-011000-
...PIKES PEAK/PALMER DIVIDE AND SOUTHERN FOOTHILLS...

CITY           SKY/WX    TMP DP  RH WIND       PRES   REMARKS
COLO. SPRINGS  PTCLDY    52  21  29 SW3       29.84F
A. F. ACADEMY  PTCLDY    50  21  32 VRB3      29.84F
ELLICOTT       NOT AVBL
FALCON         CLEAR     41  22  46 NW6       29.88F
FORT CARSON    PTCLDY    44  24  44 VRB2      29.81F
LIMON          CLEAR     35  24  64 CALM      29.81F
MONUMENT HILL  CLEAR     43  21  42 S9        29.87F
TRINIDAD       CLEAR     48  21  34 W16       29.88S
$$

COZ042>045-048>051-090-091-011000-
...NORTHEAST COLORADO...

CITY           SKY/WX    TMP DP  RH WIND       PRES   REMARKS
GREELEY ARPT   CLEAR     41  19  42 N3        29.71F
AKRON          CLEAR     56  25  30 S15       29.72F
BURLINGTON     CLEAR     53  43  68 S17       29.77F
WRAY           CLEAR     58  43  56 S14G21    29.72F
STERLING       CLEAR     46  28  49 SW6       29.69F
HOLYOKE        NOT AVBL
FORT MORGAN    CLEAR    N/A N/A N/A SW8       29.72F
$$

COZ086-089-092>099-011000-
...SOUTHEAST COLORADO...

CITY           SKY/WX    TMP DP  RH WIND       PRES   REMARKS
PUEBLO         CLEAR     44  25  47 NW3       29.79F
LA JUNTA       CLEAR     56  23  27 SW14      29.78F
LAMAR          CLEAR     51  36  56 NW7       29.75F
SPRINGFIELD      N/A     45  29  53 W6        29.81F
$$



USA.gov is the U.S. government's official web portal to all federal, state and local government web resources and services.